Regional Weather Roundup
Issued by NWS

Home | Current Version | Previous Version | Graphics & Text | Print | Product List | Glossary On
Versions: 1 2 3 4 5 6 7 8 9 10 11 12 13 14 15 16 17 18 19 20 21 22 23 24 25 26 27 28
000
ASUS45 KSLC 270310
RWRUT

UTAH REGIONAL WEATHER ROUNDUP
NATIONAL WEATHER SERVICE SALT LAKE CITY UT
900 PM MDT FRI MAY 26 2017

UTZ001>011-023>025-270400-

NORTHERN UTAH

CITY           SKY/WX    TMP DP  RH WIND       PRES   REMARKS
BRIGHAM CITY   CLEAR     55  36  48 NW16      30.01R
HILL AFB       CLEAR     56  36  47 N14       30.01R
LOGAN          PTCLDY    50  39  66 N10       30.01R
OGDEN          CLEAR     55  37  50 N12       29.99R
SALT LAKE CITY PTCLDY    60  40  47 N10       29.98R
TOOELE VALLEY  PTCLDY    55  36  47 N9        30.00R
WENDOVER       CLEAR     61  31  32 N14       29.99R
HEBER CITY     MOCLDY    54  27  35 NE5       29.98R
WEST JORDAN    PTCLDY    57  40  52 NW12      30.00R

$$

UTZ011>015-024>027-270400-

CENTRAL/NORTHEAST UTAH

CITY           SKY/WX    TMP DP  RH WIND       PRES   REMARKS
PROVO AIRPORT  MOCLDY    60  33  36 NW22      29.97R
MOAB/CANYONLAN MOCLDY    77  25  14 W20G29    29.78R
DELTA          CLOUDY    61  30  31 NE14      29.97R
PRICE          PTCLDY    59  29  31 NW24G32   29.92R
ROOSEVELT      PTCLDY    61  30  31 W17G28    29.94R
VERNAL         CLOUDY    62  32  32 E7        29.90R

$$

UTZ013>016-019>022-027-270400-

SOUTHERN UTAH

CITY           SKY/WX    TMP DP  RH WIND       PRES   REMARKS
BRYCE CANYON   CLEAR     56  18  22 SW12      30.03R
CEDAR CITY     CLEAR     66  22  18 S15       29.91R
MILFORD        CLOUDY    65  31  28 N13       29.92R
ST GEORGE      MOCLDY    80  24  12 SW12      29.78R
HANKSVILLE     PTCLDY    72  30  21 NW18G24   29.81R
BLANDING       CLEAR     67  16  14 SW5       29.98R

$$

REGIONAL REPORTS     COLORADO/ARIZONA

CITY           SKY/WX    TMP DP  RH WIND       PRES   REMARKS
CRAIG, CO      CLOUDY    50  37  61 VRB3      30.02R
GRAND JUNCTION PTCLDY    73  19  13 W6        29.78R
RIFLE, CO      CLOUDY    66  32  28 NW15      29.84R
MONTROSE, CO   CLEAR     69  11  10 S5        29.90R
CORTEZ, CO     CLEAR     61  21  21 S7        29.93R
COLORADO CITY    N/A     72  23  16 SW9       29.94S
PAGE, AZ       CLEAR     79  17  10 W10G21    29.83R
GRAND CANYON   CLEAR     61  19  19 SW15G22   30.05R
KINGMAN, AZ    CLEAR     73  24  16 S9        29.90R
FLAGSTAFF, AZ  CLEAR     58  16  19 SW9       30.10R

$$

REGIONAL REPORTS    NEVADA/IDAHO/WYOMING

CITY           SKY/WX    TMP DP  RH WIND       PRES   REMARKS
LAS VEGAS, NV  CLEAR     85  17   8 SW14G21   29.73R
ELY, NY        MOCLDY    58  23  26 N13       30.02R
ELKO, NV       CLEAR     58  27  30 NW6       30.04R
POCATELLO, ID  PTCLDY    47  40  76 CALM      30.06R
BURLEY, ID     PTCLDY    50  43  77 S6        30.04R
FORT BRIDGER,    N/A     46  32  57 W10       30.06R
EVANSTON, WY   CLOUDY    44  31  60 W8        30.05R
ROCK SPRINGS,  CLOUDY    49  30  48 NW14G24   30.01R
KEMMERER, WY     N/A     41  32  70 W14       30.03R

$$




USA.gov is the U.S. government's official web portal to all federal, state and local government web resources and services.